Time,TemperatureF,DewpointF,PressureIn,WindDirection,WindDirectionDegrees,WindSpeedMPH,WindSpeedGustMPH,Humidity,HourlyPrecipIn,Conditions,Clouds,dailyrainin,SolarRadiationWatts/m^2,SoftwareType,DateUTC
2013-03-06 00:08:00,75.5,65.0,30.05,NNE,28,0.0,5.0,69,0.00,,,0.00,0,weatherlink.com 1.10,2013-03-06 04:08:00,
2013-03-06 00:23:00,75.5,65.0,30.05,NE,34,0.0,4.0,69,0.00,,,0.00,0,weatherlink.com 1.10,2013-03-06 04:23:00,
2013-03-06 00:38:00,75.5,65.0,30.04,ENE,59,0.0,6.0,69,0.00,,,0.00,0,weatherlink.com 1.10,2013-03-06 04:38:00,
2013-03-06 00:53:00,75.3,64.0,30.03,ENE,67,1.0,8.0,69,0.00,,,0.00,0,weatherlink.com 1.10,2013-03-06 04:53:00,
2013-03-06 01:08:00,75.2,65.0,30.03,ENE,66,1.0,8.0,71,0.00,,,0.00,0,weatherlink.com 1.10,2013-03-06 05:08:00,
2013-03-06 01:23:00,75.2,65.0,30.03,ENE,61,1.0,7.0,70,0.00,,,0.00,0,weatherlink.com 1.10,2013-03-06 05:23:00,
2013-03-06 01:38:00,75.1,64.0,30.02,NE,47,2.0,5.0,69,0.00,,,0.00,0,weatherlink.com 1.10,2013-03-06 05:38:00,
2013-03-06 01:53:00,75.0,64.0,30.01,NNE,29,2.0,4.0,69,0.00,,,0.00,0,weatherlink.com 1.10,2013-03-06 05:53:00,
2013-03-06 02:08:00,74.8,64.0,30.00,NNE,29,1.0,3.0,69,0.00,,,0.00,0,weatherlink.com 1.10,2013-03-06 06:08:00,
2013-03-06 02:23:00,74.7,64.0,30.00,NNE,32,0.0,3.0,69,0.00,,,0.00,0,weatherlink.com 1.10,2013-03-06 06:23:00,
2013-03-06 02:38:00,74.6,64.0,30.00,NE,54,2.0,5.0,70,0.00,,,0.00,0,weatherlink.com 1.10,2013-03-06 06:38:00,
2013-03-06 02:53:00,74.4,64.0,29.99,NE,54,0.0,4.0,69,0.00,,,0.00,0,weatherlink.com 1.10,2013-03-06 06:53:00,
2013-03-06 03:08:00,74.6,63.0,30.00,NE,54,3.0,4.0,67,0.00,,,0.00,0,weatherlink.com 1.10,2013-03-06 07:08:00,
2013-03-06 03:23:00,74.9,64.0,29.99,NE,54,3.0,5.0,68,0.00,,,0.00,0,weatherlink.com 1.10,2013-03-06 07:23:00,
2013-03-06 03:38:00,75.1,64.0,29.99,NE,50,1.0,4.0,68,0.00,,,0.00,0,weatherlink.com 1.10,2013-03-06 07:38:00,
2013-03-06 03:53:00,74.9,64.0,29.99,NE,51,1.0,5.0,69,0.00,,,0.00,0,weatherlink.com 1.10,2013-03-06 07:53:00,
2013-03-06 04:08:00,74.8,64.0,29.99,NE,51,0.0,4.0,70,0.00,,,0.00,0,weatherlink.com 1.10,2013-03-06 08:08:00,
2013-03-06 04:23:00,74.8,64.0,29.99,NE,51,1.0,4.0,70,0.00,,,0.00,0,weatherlink.com 1.10,2013-03-06 08:23:00,
2013-03-06 04:38:00,75.2,67.0,29.99,NE,51,0.0,4.0,75,0.00,,,0.00,0,weatherlink.com 1.10,2013-03-06 08:38:00,
2013-03-06 04:54:00,74.7,67.0,30.00,NE,51,1.0,2.0,77,0.00,,,0.00,0,weatherlink.com 1.10,2013-03-06 08:54:00,
2013-03-06 05:09:00,74.0,67.0,30.00,NE,51,0.0,3.0,78,0.00,,,0.00,0,weatherlink.com 1.10,2013-03-06 09:09:00,
2013-03-06 05:24:00,73.5,67.0,30.00,NE,51,0.0,2.0,79,0.00,,,0.00,0,weatherlink.com 1.10,2013-03-06 09:24:00,
2013-03-06 05:39:00,73.2,67.0,30.00,NE,51,0.0,1.0,80,0.00,,,0.00,0,weatherlink.com 1.10,2013-03-06 09:39:00,
2013-03-06 05:54:00,73.0,67.0,30.01,NE,51,0.0,1.0,81,0.00,,,0.00,0,weatherlink.com 1.10,2013-03-06 09:54:00,
2013-03-06 06:09:00,72.8,67.0,30.01,NE,51,0.0,1.0,81,0.00,,,0.00,0,weatherlink.com 1.10,2013-03-06 10:09:00,
2013-03-06 06:24:00,72.6,67.0,30.02,NE,51,0.0,2.0,82,0.00,,,0.00,0,weatherlink.com 1.10,2013-03-06 10:24:00,
2013-03-06 06:39:00,72.7,67.0,30.02,NE,51,0.0,1.0,82,0.00,,,0.00,0,weatherlink.com 1.10,2013-03-06 10:39:00,
2013-03-06 06:54:00,72.6,67.0,30.03,NE,51,0.0,3.0,82,0.00,,,0.00,0,weatherlink.com 1.10,2013-03-06 10:54:00,
2013-03-06 07:09:00,72.7,67.0,30.03,NE,51,0.0,1.0,82,0.00,,,0.00,11,weatherlink.com 1.10,2013-03-06 11:09:00,
2013-03-06 07:24:00,73.0,68.0,30.04,NE,51,2.0,2.0,83,0.00,,,0.00,12,weatherlink.com 1.10,2013-03-06 11:24:00,
2013-03-06 07:39:00,72.9,67.0,30.04,ENE,67,0.0,5.0,81,0.00,,,0.00,19,weatherlink.com 1.10,2013-03-06 11:39:00,
2013-03-06 07:54:00,73.4,67.0,30.05,ENE,78,2.0,5.0,80,0.00,,,0.00,63,weatherlink.com 1.10,2013-03-06 11:54:00,
2013-03-06 08:09:00,74.9,67.0,30.05,ENE,69,3.0,7.0,76,0.00,,,0.00,125,weatherlink.com 1.10,2013-03-06 12:09:00,
2013-03-06 08:24:00,76.1,67.0,30.05,ENE,59,3.0,7.0,73,0.00,,,0.00,163,weatherlink.com 1.10,2013-03-06 12:24:00,
2013-03-06 08:54:00,77.9,67.0,30.06,ENE,67,4.0,9.0,70,0.00,,,0.00,490,weatherlink.com 1.10,2013-03-06 12:54:00,
2013-03-06 09:09:00,79.3,67.0,30.06,ENE,59,3.0,9.0,66,0.00,,,0.00,515,weatherlink.com 1.10,2013-03-06 13:09:00,
2013-03-06 09:24:00,79.8,67.0,30.07,East,80,1.0,10.0,65,0.00,,,0.00,561,weatherlink.com 1.10,2013-03-06 13:24:00,
2013-03-06 09:39:00,80.5,67.0,30.07,ENE,74,4.0,11.0,64,0.00,,,0.00,640,weatherlink.com 1.10,2013-03-06 13:39:00,
2013-03-06 09:54:00,81.5,68.0,30.07,ENE,66,7.0,8.0,63,0.00,,,0.00,659,weatherlink.com 1.10,2013-03-06 13:54:00,
2013-03-06 10:09:00,81.8,67.0,30.07,East,92,7.0,11.0,62,0.00,,,0.00,724,weatherlink.com 1.10,2013-03-06 14:09:00,
2013-03-06 10:24:00,82.0,67.0,30.07,ENE,76,8.0,9.0,61,0.00,,,0.00,737,weatherlink.com 1.10,2013-03-06 14:24:00,
2013-03-06 10:39:00,82.3,67.0,30.07,ENE,57,4.0,11.0,61,0.00,,,0.00,895,weatherlink.com 1.10,2013-03-06 14:39:00,
2013-03-06 10:54:00,82.7,67.0,30.07,NE,47,7.0,9.0,60,0.00,,,0.00,512,weatherlink.com 1.10,2013-03-06 14:54:00,
2013-03-06 11:09:00,82.3,67.0,30.07,East,81,8.0,10.0,61,0.00,,,0.00,401,weatherlink.com 1.10,2013-03-06 15:09:00,
2013-03-06 11:24:00,82.1,67.0,30.07,NE,55,5.0,9.0,60,0.00,,,0.00,441,weatherlink.com 1.10,2013-03-06 15:24:00,
2013-03-06 11:39:00,82.5,67.0,30.06,ENE,57,5.0,13.0,60,0.00,,,0.00,492,weatherlink.com 1.10,2013-03-06 15:39:00,
2013-03-06 11:55:00,82.9,68.0,30.06,ENE,73,10.0,11.0,60,0.00,,,0.00,573,weatherlink.com 1.10,2013-03-06 15:55:00,
2013-03-06 12:10:00,83.3,67.0,30.05,ENE,66,5.0,13.0,59,0.00,,,0.00,881,weatherlink.com 1.10,2013-03-06 16:10:00,
2013-03-06 12:25:00,84.0,68.0,30.05,ENE,64,5.0,12.0,58,0.00,,,0.00,798,weatherlink.com 1.10,2013-03-06 16:25:00,
2013-03-06 12:55:00,83.3,67.0,30.03,ENE,70,7.0,16.0,58,0.00,,,0.00,888,weatherlink.com 1.10,2013-03-06 16:55:00,
2013-03-06 13:10:00,83.9,67.0,30.03,ENE,66,7.0,14.0,58,0.00,,,0.00,870,weatherlink.com 1.10,2013-03-06 17:10:00,
2013-03-06 13:40:00,84.2,68.0,30.01,NE,44,4.0,13.0,58,0.00,,,0.00,849,weatherlink.com 1.10,2013-03-06 17:40:00,
2013-03-06 13:55:00,84.1,68.0,30.00,East,92,9.0,16.0,59,0.00,,,0.00,831,weatherlink.com 1.10,2013-03-06 17:55:00,
2013-03-06 14:10:00,83.9,67.0,30.00,ENE,66,4.0,15.0,58,0.00,,,0.00,805,weatherlink.com 1.10,2013-03-06 18:10:00,
2013-03-06 14:25:00,82.9,68.0,30.00,NE,55,14.0,14.0,60,0.00,,,0.00,775,weatherlink.com 1.10,2013-03-06 18:25:00,
2013-03-06 14:40:00,82.6,68.0,29.99,ENE,67,7.0,13.0,61,0.00,,,0.00,747,weatherlink.com 1.10,2013-03-06 18:40:00,
2013-03-06 14:55:00,82.6,68.0,29.98,East,95,14.0,16.0,61,0.00,,,0.00,737,weatherlink.com 1.10,2013-03-06 18:55:00,
2013-03-06 15:10:00,80.9,68.0,29.98,North,355,7.0,16.0,64,0.00,,,0.00,480,weatherlink.com 1.10,2013-03-06 19:10:00,
2013-03-06 15:25:00,81.5,68.0,29.98,East,86,8.0,16.0,64,0.00,,,0.00,480,weatherlink.com 1.10,2013-03-06 19:25:00,
2013-03-06 15:40:00,81.7,68.0,29.97,East,92,13.0,14.0,63,0.00,,,0.00,497,weatherlink.com 1.10,2013-03-06 19:40:00,
2013-03-06 15:55:00,81.6,68.0,29.97,East,91,14.0,15.0,64,0.00,,,0.00,469,weatherlink.com 1.10,2013-03-06 19:55:00,
2013-03-06 16:10:00,81.4,68.0,29.97,ENE,58,7.0,16.0,63,0.00,,,0.00,445,weatherlink.com 1.10,2013-03-06 20:10:00,
2013-03-06 16:25:00,81.4,68.0,29.97,NE,53,9.0,16.0,64,0.00,,,0.00,438,weatherlink.com 1.10,2013-03-06 20:25:00,
2013-03-06 16:40:00,81.0,69.0,29.97,NE,40,3.0,13.0,66,0.00,,,0.00,346,weatherlink.com 1.10,2013-03-06 20:40:00,
2013-03-06 16:55:00,80.2,68.0,29.97,NE,56,9.0,12.0,67,0.00,,,0.00,83,weatherlink.com 1.10,2013-03-06 20:55:00,
2013-03-06 17:10:00,79.8,68.0,29.98,ENE,63,4.0,15.0,67,0.00,,,0.00,160,weatherlink.com 1.10,2013-03-06 21:10:00,
2013-03-06 17:25:00,79.0,68.0,29.98,ENE,59,11.0,11.0,69,0.00,,,0.00,51,weatherlink.com 1.10,2013-03-06 21:25:00,
2013-03-06 17:40:00,78.3,69.0,29.98,NNE,17,7.0,13.0,72,0.00,,,0.00,54,weatherlink.com 1.10,2013-03-06 21:40:00,
2013-03-06 17:55:00,78.1,68.0,29.98,NE,46,8.0,13.0,72,0.00,,,0.00,53,weatherlink.com 1.10,2013-03-06 21:55:00,
2013-03-06 18:10:00,77.8,69.0,29.99,East,80,8.0,15.0,74,0.00,,,0.00,26,weatherlink.com 1.10,2013-03-06 22:10:00,
2013-03-06 18:25:00,77.5,69.0,29.99,ENE,71,9.0,12.0,75,0.00,,,0.00,9,weatherlink.com 1.10,2013-03-06 22:25:00,
2013-03-06 18:40:00,77.4,69.0,29.99,East,84,6.0,10.0,76,0.00,,,0.00,0,weatherlink.com 1.10,2013-03-06 22:40:00,
2013-03-06 18:55:00,77.3,69.0,29.99,ENE,69,11.0,12.0,76,0.00,,,0.00,0,weatherlink.com 1.10,2013-03-06 22:55:00,
2013-03-06 19:10:00,77.4,70.0,30.00,East,90,5.0,11.0,77,0.00,,,0.00,0,weatherlink.com 1.10,2013-03-06 23:10:00,
2013-03-06 19:25:00,77.2,70.0,30.00,ENE,74,3.0,11.0,77,0.00,,,0.00,0,weatherlink.com 1.10,2013-03-06 23:25:00,
2013-03-06 19:40:00,77.1,69.0,30.00,ESE,105,5.0,12.0,77,0.00,,,0.00,0,weatherlink.com 1.10,2013-03-06 23:40:00,
2013-03-06 19:55:00,77.0,69.0,30.00,SE,142,7.0,12.0,77,0.00,,,0.00,0,weatherlink.com 1.10,2013-03-06 23:55:00,
2013-03-06 20:10:00,77.0,69.0,30.00,East,83,5.0,11.0,77,0.00,,,0.00,0,weatherlink.com 1.10,2013-03-07 00:10:00,
2013-03-06 20:25:00,76.7,69.0,30.01,East,79,5.0,11.0,77,0.00,,,0.00,0,weatherlink.com 1.10,2013-03-07 00:25:00,
2013-03-06 20:40:00,76.6,69.0,30.02,East,84,1.0,13.0,78,0.00,,,0.00,0,weatherlink.com 1.10,2013-03-07 00:40:00,
2013-03-06 20:55:00,76.6,69.0,30.02,East,88,5.0,7.0,78,0.00,,,0.00,0,weatherlink.com 1.10,2013-03-07 00:55:00,
2013-03-06 21:10:00,76.5,70.0,30.03,East,86,6.0,9.0,79,0.00,,,0.00,0,weatherlink.com 1.10,2013-03-07 01:10:00,
2013-03-06 21:25:00,76.5,70.0,30.03,ESE,111,5.0,13.0,79,0.00,,,0.00,0,weatherlink.com 1.10,2013-03-07 01:25:00,
2013-03-06 21:40:00,76.5,70.0,30.03,ENE,64,8.0,9.0,79,0.00,,,0.00,0,weatherlink.com 1.10,2013-03-07 01:40:00,
2013-03-06 21:55:00,76.3,69.0,30.03,ESE,112,2.0,8.0,79,0.00,,,0.00,0,weatherlink.com 1.10,2013-03-07 01:55:00,
2013-03-06 22:10:00,76.2,70.0,30.03,ENE,73,0.0,7.0,80,0.00,,,0.00,0,weatherlink.com 1.10,2013-03-07 02:10:00,
2013-03-06 22:25:00,76.1,70.0,30.03,ESE,117,7.0,8.0,80,0.00,,,0.00,0,weatherlink.com 1.10,2013-03-07 02:25:00,
2013-03-06 22:40:00,76.2,70.0,30.03,SE,126,1.0,10.0,81,0.00,,,0.00,0,weatherlink.com 1.10,2013-03-07 02:40:00,
2013-03-06 22:55:00,76.1,70.0,30.02,SE,129,3.0,7.0,81,0.00,,,0.00,0,weatherlink.com 1.10,2013-03-07 02:55:00,
2013-03-06 23:10:00,76.0,70.0,30.03,SE,127,4.0,8.0,81,0.00,,,0.00,0,weatherlink.com 1.10,2013-03-07 03:10:00,
2013-03-06 23:25:00,75.9,70.0,30.02,SE,130,2.0,8.0,81,0.00,,,0.00,0,weatherlink.com 1.10,2013-03-07 03:25:00,
2013-03-06 23:40:00,75.7,70.0,30.02,ESE,121,1.0,7.0,81,0.00,,,0.00,0,weatherlink.com 1.10,2013-03-07 03:40:00,
2013-03-06 23:55:00,75.7,70.0,30.02,ESE,115,2.0,7.0,82,0.00,,,0.00,0,weatherlink.com 1.10,2013-03-07 03:55:00,